1510642800.78,32118,6.5,73106.5,-9.51,-42.95,-42.89,0,*59
1510642802.03,32119,6.5,73100.5,-9.49,-42.83,-42.89,0,*56
1510642803.27,32120,6.5,73104.8,-9.49,-43.01,-43.01,0,*56
1510642804.53,32121,6.5,73106.8,-9.45,-42.63,-42.69,0,*51
1510642805.82,32122,6.5,73100.8,-9.45,-42.69,-42.69,0,*58
1510642807.07,32123,6.5,73104.8,-9.45,-42.51,-42.63,0,*58
1510642808.36,32124,6.5,73106.5,-9.45,-42.69,-42.83,0,*5A
1510642809.65,32125,6.5,73106.0,-9.41,-42.83,-42.95,0,*5C
1510642810.87,32126,6.5,73108.0,-9.43,-42.63,-42.63,0,*5A
1510642812.12,32127,6.5,73110.8,-9.43,-42.45,-42.75,0,*58
1510642813.4,32128,6.5,73110.0,-9.41,-42.75,-42.95,0,*58
1510642814.66,32129,6.5,73112.8,-9.41,-42.75,-42.83,0,*5E
1510642815.91,32130,6.5,73110.5,-9.41,-43.01,-43.01,0,*5F
1510642817.19,32131,6.5,73110.8,-9.41,-43.01,-43.21,0,*5C
1510642818.43,32132,6.5,73108.5,-9.43,-42.95,-43.01,0,*53
1510642819.71,32133,6.5,73106.8,-9.41,-43.01,-43.21,0,*5E
1510642820.95,32134,6.5,73104.0,-9.39,-43.09,-43.15,0,*59
1510642822.22,32135,6.5,73110.0,-9.39,-42.95,-43.09,0,*51
1510642823.52,32136,6.5,73108.5,-9.37,-43.09,-43.09,0,*58
1510642824.73,32137,6.5,73104.8,-9.39,-42.89,-42.89,0,*57
1510642825.97,32138,6.5,73112.3,-9.39,-42.89,-42.95,0,*55
1510642827.19,32139,6.5,73108.3,-9.39,-42.51,-42.51,0,*59
1510642828.46,32140,6.5,73104.8,-9.37,-42.69,-42.75,0,*54
1510642829.74,32141,6.5,73114.5,-9.37,-42.95,-43.15,0,*51
1510642830.98,32142,6.5,73114.8,-9.37,-42.89,-42.89,0,*5B
1510642832.28,32143,6.5,73112.8,-9.37,-42.95,-42.95,0,*5A
1510642833.52,32144,6.5,73112.3,-9.39,-42.89,-43.09,0,*5A
1510642834.76,32145,6.5,73112.8,-9.35,-42.83,-42.89,0,*54
1510642836.02,32146,6.5,73108.8,-9.33,-42.63,-42.83,0,*55
1510642837.29,32147,6.5,73112.5,-9.35,-42.83,-42.69,0,*58
1510642838.55,32148,6.5,73114.3,-9.35,-42.45,-42.45,0,*53
1510642839.82,32149,6.5,73118.5,-9.33,-42.31,-42.51,0,*52
1510642841.11,32150,6.5,73118.0,-9.33,-42.05,-42.31,0,*5B
1510642842.39,32151,6.5,73112.5,-9.33,-42.13,-42.31,0,*5D
1510642843.66,32152,6.5,73118.3,-9.29,-41.99,-42.19,0,*5E
1510642844.93,32153,6.5,73116.8,-9.29,-41.99,-42.19,0,*5F
1510642846.2,32154,6.5,73112.8,-9.29,-42.19,-42.25,0,*5C
1510642847.47,32155,6.5,73108.3,-9.29,-42.25,-42.45,0,*54
1510642848.77,32156,6.5,73114.0,-9.29,-42.83,-42.95,0,*56
1510642850.01,32157,6.5,73114.8,-9.27,-42.75,-42.95,0,*50
1510642851.26,32158,6.5,73114.5,-9.27,-42.69,-42.75,0,*5C
1510642852.51,32159,6.5,73114.8,-9.27,-42.75,-43.09,0,*5A
1510642853.76,32160,6.5,73118.0,-9.23,-42.57,-42.69,0,*53
1510642855.03,32161,6.5,73120.8,-9.23,-42.19,-42.19,0,*5F
1510642856.26,32162,6.5,73116.8,-9.23,-41.93,-42.13,0,*57
1510642857.5,32163,6.5,73120.0,-9.23,-41.99,-42.19,0,*56
1510642858.73,32164,6.5,73114.5,-9.23,-41.99,-42.19,0,*51
1510642860.02,32165,6.5,73118.3,-9.21,-42.31,-42.45,0,*5A
1510642861.29,32166,6.5,73114.8,-9.21,-42.45,-42.51,0,*5F
1510642862.53,32167,6.5,73118.8,-9.21,-42.51,-42.63,0,*5A
1510642863.77,32168,6.5,73122.0,-9.19,-42.51,-42.83,0,*50
1510642865.01,32169,6.5,73122.0,-9.21,-42.63,-42.89,0,*51
1510642866.25,32170,6.5,73118.8,-9.21,-42.63,-42.63,0,*5D
1510642867.5,32171,6.5,73116.0,-9.19,-42.45,-42.51,0,*52
1510642868.74,32172,6.5,73116.0,-9.19,-42.45,-42.51,0,*51
1510642870.01,32173,6.5,73118.0,-9.17,-42.57,-42.63,0,*5C
1510642871.27,32174,6.5,73118.3,-9.15,-42.37,-42.45,0,*5B
1510642872.53,32175,6.5,73116.3,-9.17,-42.19,-42.25,0,*52
1510642873.77,32176,6.5,73118.8,-9.15,-41.99,-42.25,0,*58
1510642875.06,32177,6.5,73116.5,-9.17,-41.81,-42.05,0,*50
1510642876.35,32178,6.5,73116.8,-9.15,-42.05,-42.19,0,*5F
1510642877.59,32179,6.5,73116.8,-9.13,-41.81,-42.13,0,*5D
1510642878.8,32180,6.5,73118.3,-9.13,-41.73,-41.99,0,*57
1510642880.01,32181,6.5,73122.8,-9.13,-41.73,-42.13,0,*57
1510642881.25,32182,6.5,73122.3,-9.11,-41.73,-42.13,0,*56
1510642882.49,32183,6.5,73120.8,-9.11,-41.99,-42.13,0,*53
1510642883.75,32184,6.5,73118.5,-9.11,-41.81,-42.13,0,*5D
1510642885.02,32185,6.5,73116.8,-9.09,-41.67,-41.93,0,*56
1510642886.27,32186,6.5,73120.0,-9.07,-41.93,-42.13,0,*5B
1510642887.53,32187,6.5,73120.3,-9.07,-41.93,-42.25,0,*5F
1510642888.79,32188,6.5,73116.3,-9.07,-42.05,-42.13,0,*59
1510642890.03,32189,6.5,73122.0,-9.05,-41.87,-42.05,0,*54
1510642891.29,32190,6.5,73120.5,-9.03,-41.87,-42.05,0,*5A
1510642892.58,32191,6.5,73126.3,-9.03,-42.05,-42.19,0,*5F
1510642893.85,32192,6.5,73122.8,-9.03,-42.19,-42.25,0,*5E
1510642895.11,32193,6.5,73124.0,-9.03,-42.05,-42.25,0,*52
1510642896.37,32194,6.5,73124.5,-9.03,-42.19,-42.25,0,*58
1510642897.64,32195,6.5,73126.3,-9.03,-42.05,-42.25,0,*54
1510642898.9,32196,6.5,73126.3,-9.03,-42.37,-42.57,0,*53
1510642900.16,32197,6.5,73124.5,-9.03,-42.19,-42.37,0,*58
1510642901.42,32198,6.5,73126.8,-8.99,-42.31,-42.51,0,*5F
1510642902.71,32199,6.5,73126.5,-8.99,-42.31,-42.57,0,*58
1510642903.99,32200,6.5,73126.5,-8.99,-42.31,-42.57,0,*5B
1510642905.25,32201,6.5,73128.3,-8.97,-42.31,-42.57,0,*54
1510642906.51,32202,6.5,73126.0,-8.97,-42.31,-42.69,0,*5A
1510642907.78,32203,6.5,73124.0,-8.95,-42.31,-42.63,0,*53
1510642909.04,32204,6.5,73130.0,-8.95,-42.31,-42.51,0,*55
1510642910.3,32205,6.5,73124.5,-8.95,-42.25,-42.45,0,*54
1510642911.54,32206,6.5,73126.3,-8.95,-42.13,-42.51,0,*57
1510642912.78,32207,6.5,73126.3,-8.95,-42.25,-42.51,0,*53
1510642914.0,32208,6.5,73128.0,-8.93,-42.25,-42.51,0,*5A
1510642915.22,32209,6.5,73130.5,-8.93,-42.25,-42.51,0,*5B
1510642916.47,32210,6.5,73130.0,-8.91,-42.37,-42.69,0,*59
1510642917.74,32211,6.5,73130.3,-8.93,-42.45,-42.95,0,*5C
1510642919.01,32212,6.5,73130.0,-8.93,-42.45,-42.95,0,*5F
1510642920.26,32213,6.5,73128.8,-8.91,-42.37,-42.83,0,*5E
1510642921.51,32214,6.5,73128.5,-8.91,-42.57,-42.89,0,*55
1510642922.76,32215,6.5,73130.3,-8.91,-42.57,-42.89,0,*54
1510642924.0,32216,6.5,73128.8,-8.91,-42.63,-43.01,0,*51
1510642925.21,32217,6.5,73134.5,-8.89,-42.51,-43.01,0,*58
1510642926.46,32218,6.5,73134.3,-8.91,-42.69,-43.01,0,*55
1510642927.69,32219,6.5,73128.8,-8.89,-42.57,-43.01,0,*50
1510642928.93,32220,6.5,73130.3,-8.91,-42.63,-43.01,0,*54
1510642930.19,32221,6.5,73130.3,-8.89,-42.57,-42.95,0,*57
1510642931.45,32222,6.5,73128.5,-8.89,-42.57,-42.95,0,*54
1510642932.69,32223,6.5,73130.3,-8.89,-42.63,-42.95,0,*52
1510642933.92,32224,6.5,73130.0,-8.89,-42.51,-42.83,0,*53
1510642935.17,32225,6.5,73128.3,-8.89,-42.19,-42.75,0,*57
1510642936.43,32226,6.5,73128.5,-8.87,-42.37,-42.83,0,*5F
1510642937.7,32227,6.5,73128.5,-8.87,-42.31,-42.75,0,*51
1510642938.94,32228,6.5,73128.5,-8.85,-42.25,-42.57,0,*59
1510642940.18,32229,6.5,73124.8,-8.87,-42.37,-42.75,0,*59
1510642941.42,32230,6.5,73134.3,-8.85,-42.45,-42.75,0,*56
1510642942.66,32231,6.5,73126.5,-8.85,-42.45,-42.75,0,*57
1510642943.89,32232,6.5,73128.5,-8.83,-42.45,-42.89,0,*51
1510642945.16,32233,6.5,73128.5,-8.85,-42.31,-42.69,0,*5B
1510642946.4,32234,6.5,73128.3,-8.85,-42.31,-42.75,0,*51
1510642947.63,32235,6.5,73130.3,-8.85,-42.45,-42.89,0,*50
1510642948.9,32236,6.5,73130.0,-8.83,-42.57,-42.95,0,*5B
1510642950.11,32237,6.5,73124.8,-8.83,-42.51,-42.89,0,*51
1510642951.34,32238,6.5,73130.3,-8.83,-42.45,-42.89,0,*5B
1510642952.59,32239,6.5,73132.0,-8.83,-42.31,-42.75,0,*5A
1510642953.85,32240,6.5,73126.3,-8.81,-42.25,-42.69,0,*5E
1510642955.09,32241,6.5,73130.3,-8.81,-42.51,-42.75,0,*51
1510642956.35,32242,6.5,73132.5,-8.81,-42.45,-42.75,0,*57
1510642957.62,32243,6.5,73132.0,-8.81,-42.45,-42.75,0,*56
1510642958.91,32244,6.5,73132.0,-8.77,-42.45,-42.83,0,*51
1510642960.15,32245,6.5,73130.5,-8.75,-42.31,-42.75,0,*58
1510642961.39,32246,6.5,73130.3,-8.75,-42.31,-42.75,0,*5B
1510642962.66,32247,6.5,73130.3,-8.77,-42.37,-42.83,0,*57
1510642963.87,32248,6.5,73128.3,-8.75,-42.37,-42.75,0,*53
1510642965.12,32249,6.5,73130.5,-8.75,-42.37,-42.95,0,*5C
1510642966.33,32250,6.5,73132.3,-8.75,-42.37,-42.75,0,*5A
1510642967.59,32251,6.5,73130.3,-8.75,-42.45,-42.83,0,*57
1510642968.87,32252,6.5,73134.8,-8.73,-42.45,-42.83,0,*52
1510642970.14,32253,6.5,73130.0,-8.73,-42.37,-42.83,0,*56
1510642971.43,32254,6.5,73132.5,-8.73,-42.45,-42.95,0,*53
1510642972.72,32255,6.5,73132.5,-8.73,-42.57,-42.95,0,*51
1510642973.98,32256,6.5,73132.3,-8.73,-42.37,-42.83,0,*53
1510642975.24,32257,6.5,73132.3,-8.73,-42.37,-42.83,0,*52
1510642976.45,32258,6.5,73132.3,-8.71,-42.37,-42.89,0,*55
1510642977.69,32259,6.5,73128.5,-8.71,-42.31,-42.75,0,*51
1510642978.94,32260,6.5,73130.3,-8.71,-42.37,-42.95,0,*53
1510642980.23,32261,6.5,73132.5,-8.73,-42.45,-42.95,0,*55
1510642981.47,32262,6.5,73134.8,-8.71,-42.37,-42.95,0,*51
1510642982.68,32263,6.5,73134.0,-8.71,-42.37,-42.89,0,*5D
1510642983.92,32264,6.5,73132.5,-8.71,-42.51,-42.95,0,*57
1510642985.18,32265,6.5,73130.8,-8.71,-42.57,-43.09,0,*54
1510642986.39,32266,6.5,73130.3,-8.71,-42.51,-42.89,0,*58
1510642987.69,32267,6.5,73130.3,-8.69,-42.31,-42.95,0,*5B
1510642988.93,32268,6.5,73128.5,-8.69,-42.51,-42.89,0,*5F
1510642990.17,32269,6.5,73132.8,-8.67,-42.51,-42.95,0,*5D
1510642991.41,32270,6.5,73132.5,-8.67,-42.51,-43.09,0,*51
1510642992.64,32271,6.5,73132.3,-8.67,-42.45,-43.01,0,*5D
1510642993.9,32272,6.5,73128.5,-8.67,-42.45,-43.09,0,*56
1510642995.14,32273,6.5,73134.5,-8.67,-42.51,-43.09,0,*52
1510642996.38,32274,6.5,73132.5,-8.67,-42.63,-43.09,0,*54
1510642997.59,32275,6.5,73132.3,-8.67,-42.51,-43.01,0,*5C
1510642998.85,32276,6.5,73132.5,-8.65,-42.45,-42.89,0,*59
1510643000.08,32277,6.5,73132.5,-8.67,-42.45,-42.89,0,*5A
1510643001.37,32278,6.5,73130.8,-8.65,-42.45,-43.09,0,*5E
1510643002.63,32279,6.5,73132.8,-8.65,-42.63,-43.09,0,*5B
1510643003.89,32280,6.5,73130.0,-8.67,-42.83,-43.21,0,*5B
1510643005.14,32281,6.5,73132.3,-8.65,-42.63,-43.21,0,*56
1510643006.37,32282,6.5,73134.3,-8.63,-42.57,-43.15,0,*53
1510643007.66,32283,6.5,73130.5,-8.65,-42.69,-43.29,0,*56
1510643008.91,32284,6.5,73132.0,-8.63,-42.57,-43.21,0,*52
1510643010.16,32285,6.5,73132.3,-8.63,-42.83,-43.21,0,*5A
1510643011.38,32286,6.5,73128.3,-8.63,-43.01,-43.61,0,*56
1510643012.65,32287,6.5,73128.0,-8.65,-43.01,-43.55,0,*56
1510643013.89,32288,6.5,73130.8,-8.63,-43.01,-43.55,0,*5F
1510643015.14,32289,6.5,73128.3,-8.63,-42.95,-43.35,0,*54
1510643016.37,32290,6.5,73128.5,-8.63,-42.83,-43.49,0,*50
1510643017.61,32291,6.5,73130.8,-8.63,-42.95,-43.61,0,*5C
1510643018.83,32292,6.5,73128.0,-8.63,-43.01,-43.61,0,*53
1510643020.06,32293,6.5,73126.5,-8.63,-43.09,-43.75,0,*5F
1510643021.31,32294,6.5,73128.3,-8.63,-43.21,-43.81,0,*59
1510643022.54,32295,6.5,73130.8,-8.63,-43.21,-43.87,0,*5E
1510643023.74,32296,6.5,73130.0,-8.63,-43.41,-43.87,0,*5B
1510643024.97,32297,6.5,73128.0,-8.63,-43.15,-43.81,0,*5D
1510643026.22,32298,6.5,73130.8,-8.63,-43.21,-43.81,0,*55
1510643027.47,32299,6.5,73132.5,-8.63,-43.21,-43.81,0,*54
1510643028.76,32300,6.5,73130.3,-8.65,-43.09,-43.67,0,*51
1510643029.97,32301,6.5,73132.3,-8.63,-43.01,-43.49,0,*52
1510643031.19,32302,6.5,73128.5,-8.63,-43.01,-43.61,0,*5B
1510643032.4,32303,6.5,73132.8,-8.63,-43.01,-43.61,0,*5A
1510643033.65,32304,6.5,73130.0,-8.63,-42.95,-43.61,0,*51
1510643034.89,32305,6.5,73130.3,-8.63,-42.95,-43.49,0,*5A
1510643036.1,32306,6.5,73130.3,-8.63,-43.01,-43.49,0,*55
1510643037.37,32307,6.5,73132.3,-8.61,-42.83,-43.41,0,*55
1510643038.61,32308,6.5,73130.3,-8.63,-42.95,-43.41,0,*5F
1510643039.85,32309,6.5,73136.0,-8.63,-42.95,-43.49,0,*56
1510643041.11,32310,6.5,73134.0,-8.61,-42.83,-43.35,0,*50
1510643042.32,32311,6.5,73134.0,-8.59,-42.89,-43.41,0,*53
1510643043.59,32312,6.5,73136.5,-8.59,-42.95,-43.55,0,*58
1510643044.85,32313,6.5,73134.0,-8.59,-42.95,-43.55,0,*59
1510643046.08,32314,6.5,73134.0,-8.61,-43.15,-43.49,0,*51
1510643047.34,32315,6.5,73132.3,-8.61,-43.15,-43.81,0,*54
1510643048.57,32316,6.5,73136.3,-8.59,-43.09,-43.61,0,*5F
1510643049.83,32317,6.5,73138.3,-8.61,-43.15,-43.81,0,*56
1510643051.1,32318,6.5,73132.5,-8.61,-43.01,-43.67,0,*54
1510643052.37,32319,6.5,73132.8,-8.61,-43.01,-43.81,0,*5D
1510643053.64,32320,6.5,73134.8,-8.61,-43.01,-43.67,0,*5F
1510643054.87,32321,6.5,73134.5,-8.59,-42.95,-43.61,0,*5F
1510643056.08,32322,6.5,73134.3,-8.59,-43.15,-43.75,0,*50
1510643057.33,32323,6.5,73138.0,-8.59,-43.29,-44.01,0,*5A
1510643058.53,32324,6.5,73138.3,-8.59,-43.35,-43.95,0,*5A
1510643059.79,32325,6.5,73136.5,-8.61,-43.21,-43.87,0,*56
1510643061.03,32326,6.5,73138.5,-8.59,-43.21,-43.81,0,*58
1510643062.27,32327,6.5,73134.5,-8.59,-42.95,-43.61,0,*59
1510643063.5,32328,6.5,73136.5,-8.59,-43.09,-43.75,0,*57
1510643064.73,32329,6.5,73134.0,-8.59,-43.75,-44.33,0,*58
1510643065.95,32330,6.5,73134.3,-8.59,-43.81,-44.41,0,*5E
1510643067.2,32331,6.5,73134.3,-8.59,-44.01,-44.67,0,*54
1510643068.46,32332,6.5,73138.3,-8.61,-44.47,-45.13,0,*5C
1510643069.7,32333,6.5,73136.8,-8.61,-44.61,-45.13,0,*59
1510643070.9,32334,6.5,73134.8,-8.63,-44.61,-45.13,0,*5C
1510643072.13,32335,6.5,73130.5,-8.63,-44.41,-45.07,0,*5A
1510643073.37,32336,6.5,73134.3,-8.63,-44.27,-45.07,0,*59
1510643074.63,32337,6.5,73136.8,-8.65,-44.07,-44.73,0,*5E
1510643075.91,32338,6.5,73134.8,-8.65,-44.13,-44.73,0,*54
1510643077.2,32339,6.5,73136.3,-8.65,-44.13,-44.93,0,*5B
1510643078.48,32340,6.5,73136.0,-8.65,-43.55,-44.13,0,*58
1510643079.68,32341,6.5,73134.3,-8.63,-43.35,-43.87,0,*53
1510643080.92,32342,6.44,73132.5,-8.65,-43.41,-43.95,0,*56
1510643082.18,32343,6.5,73138.5,-8.65,-43.21,-43.95,0,*51
1510643083.43,32344,6.5,73140.3,-8.65,-43.21,-43.87,0,*55
1510643084.66,32345,6.5,73140.8,-8.63,-43.15,-43.81,0,*53
1510643085.91,32346,6.5,73138.0,-8.65,-43.21,-43.75,0,*5A
1510643087.16,32347,6.5,73140.8,-8.63,-43.21,-44.01,0,*59
1510643088.4,32348,6.5,73136.0,-8.63,-43.55,-44.27,0,*51
1510643089.66,32349,6.5,73140.8,-8.65,-43.75,-44.33,0,*51
1510643090.89,32350,6.5,73140.3,-8.63,-43.67,-44.41,0,*59
1510643092.14,32351,6.5,73138.3,-8.61,-43.67,-44.41,0,*5A
1510643093.37,32352,6.5,73138.8,-8.65,-43.87,-44.61,0,*51
1510643094.66,32353,6.5,73132.3,-8.65,-44.13,-44.73,0,*59
1510643095.89,32354,6.5,73136.3,-8.65,-44.07,-44.79,0,*51
1510643097.13,32355,6.5,73134.3,-8.65,-44.27,-44.99,0,*5C
1510643098.36,32356,6.5,73128.5,-8.69,-44.41,-45.13,0,*50
1510643099.62,32357,6.5,73130.0,-8.67,-44.13,-44.93,0,*51
1510643100.84,32358,6.5,73128.3,-8.67,-44.27,-44.99,0,*53
1510643102.1,32359,6.5,73132.0,-8.69,-44.41,-45.07,0,*5A
1510643103.33,32360,6.5,73128.8,-8.69,-44.41,-44.99,0,*56
1510643104.59,32361,6.5,73126.5,-8.69,-43.61,-44.13,0,*50
1510643105.83,32362,6.5,73126.0,-8.67,-43.29,-43.87,0,*5B
1510643107.09,32363,6.5,73132.3,-8.69,-43.35,-44.01,0,*50
1510643108.34,32364,6.5,73130.3,-8.69,-43.35,-44.01,0,*57
1510643109.6,32365,6.5,73128.3,-8.65,-43.21,-43.95,0,*55
1510643110.89,32366,6.5,73130.8,-8.69,-43.29,-44.01,0,*58
1510643112.13,32367,6.5,73128.8,-8.67,-43.29,-43.95,0,*5D
1510643113.35,32368,6.5,73130.3,-8.67,-43.21,-43.87,0,*59
1510643114.61,32369,6.5,73130.5,-8.65,-43.21,-43.87,0,*5A
1510643115.86,32370,6.5,73128.8,-8.65,-43.21,-43.87,0,*52
1510643117.09,32371,6.5,73132.5,-8.67,-43.21,-43.75,0,*5C
1510643118.32,32372,6.5,73130.0,-8.67,-43.21,-43.87,0,*52
1510643119.57,32373,6.5,73134.0,-8.65,-43.21,-43.87,0,*51
1510643120.82,32374,6.5,73134.3,-8.65,-43.21,-43.87,0,*56
1510643122.06,32375,6.5,73132.5,-8.63,-43.01,-43.67,0,*5D
1510643123.3,32376,6.5,73134.3,-8.63,-43.01,-43.81,0,*56
1510643124.56,32377,6.5,73136.0,-8.65,-43.09,-43.87,0,*5F
1510643125.81,32378,6.5,73134.8,-8.65,-43.21,-43.87,0,*5A
1510643127.03,32379,6.5,73132.5,-8.63,-43.15,-43.81,0,*5C
1510643128.26,32380,6.5,73136.8,-8.63,-43.15,-43.81,0,*5A
1510643129.49,32381,6.5,73138.3,-8.63,-43.15,-43.67,0,*53
1510643130.72,32382,6.5,73142.5,-8.63,-43.15,-43.81,0,*58
1510643131.94,32383,6.5,73138.8,-8.63,-43.15,-43.81,0,*59
1510643133.17,32384,6.5,73138.0,-8.63,-43.15,-43.81,0,*5E
1510643134.39,32385,6.5,73138.5,-8.63,-43.15,-43.81,0,*5F
1510643135.62,32386,6.5,73140.5,-8.63,-43.15,-43.81,0,*5C
1510643136.84,32387,6.5,73136.8,-8.63,-43.15,-43.81,0,*5D
1510643138.11,32388,6.5,73136.5,-8.61,-43.41,-44.01,0,*5E
1510643139.36,32389,6.5,73136.5,-8.61,-43.21,-43.87,0,*50
1510643140.61,32390,6.5,73136.5,-8.59,-43.09,-43.81,0,*5F
1510643141.84,32391,6.5,73134.5,-8.61,-43.15,-43.87,0,*5E
1510643143.1,32392,6.5,73132.3,-8.61,-43.21,-43.87,0,*5A
1510643144.36,32393,6.5,73132.8,-8.61,-43.35,-44.01,0,*57
1510643145.62,32394,6.5,73134.8,-8.61,-43.41,-44.01,0,*53
1510643146.88,32395,6.5,73136.0,-8.61,-43.41,-44.01,0,*52
1510643148.14,32396,6.5,73134.0,-8.61,-43.35,-44.01,0,*52
1510643149.36,32397,6.5,73134.3,-8.59,-43.15,-43.81,0,*55
1510643150.6,32398,6.5,73134.3,-8.61,-43.35,-44.07,0,*5A
1510643151.82,32399,6.5,73138.5,-8.59,-43.81,-44.41,0,*5D
1510643153.02,32400,6.5,73136.3,-8.59,-43.95,-44.61,0,*5D
1510643154.31,32401,6.5,73134.0,-8.61,-44.01,-44.73,0,*5E
1510643155.54,32402,6.5,73132.5,-8.61,-43.87,-44.61,0,*57
1510643156.82,32403,6.5,73134.3,-8.61,-43.81,-44.47,0,*54
1510643158.11,32404,6.5,73134.8,-8.61,-44.01,-44.73,0,*5B
1510643159.37,32405,6.5,73136.8,-8.61,-44.07,-44.73,0,*5C
1510643160.63,32406,6.5,73128.8,-8.63,-44.01,-44.73,0,*5B
1510643161.85,32407,6.5,73132.3,-8.63,-43.87,-44.67,0,*56
1510643163.1,32408,6.5,73130.5,-8.65,-43.87,-44.67,0,*5F
1510643164.35,32409,6.44,73128.5,-8.63,-44.01,-44.67,0,*51
1510643165.61,32410,6.5,73130.8,-8.65,-44.07,-44.73,0,*5C
1510643166.84,32411,6.5,73132.5,-8.63,-44.13,-44.99,0,*5A
1510643168.08,32412,6.5,73130.3,-8.65,-43.41,-44.07,0,*58
1510643169.34,32413,6.5,73136.0,-8.65,-43.29,-43.95,0,*5B
1510643170.6,32414,6.5,73134.3,-8.65,-43.21,-43.95,0,*54
1510643171.83,32415,6.5,73132.8,-8.63,-43.21,-43.95,0,*53
1510643173.03,32416,6.5,73138.8,-8.63,-43.15,-43.87,0,*54
1510643174.26,32417,6.5,73136.5,-8.63,-43.15,-43.81,0,*53
1510643175.48,32418,6.5,73134.3,-8.63,-43.15,-43.81,0,*5C
1510643176.74,32419,6.5,73136.3,-8.61,-43.15,-43.81,0,*5F
1510643178.0,32420,6.5,73142.5,-8.61,-43.01,-43.81,0,*50
1510643179.27,32421,6.5,73136.8,-8.61,-43.01,-43.81,0,*51
1510643180.56,32422,6.5,73142.5,-8.61,-42.95,-43.67,0,*56
1510643181.83,32423,6.5,73138.8,-8.61,-43.01,-43.81,0,*53
1510643183.08,32424,6.5,73138.8,-8.61,-43.35,-43.81,0,*53
1510643184.35,32425,6.5,73138.8,-8.61,-43.49,-44.21,0,*54
1510643185.61,32426,6.5,73138.3,-8.61,-43.41,-44.01,0,*5D
1510643186.84,32427,6.5,73138.5,-8.59,-43.55,-44.41,0,*56
1510643188.06,32428,6.5,73136.8,-8.59,-43.35,-44.13,0,*58
1510643189.33,32429,6.5,73136.3,-8.61,-43.41,-44.21,0,*50
1510643190.55,32430,6.5,73132.5,-8.59,-43.35,-44.01,0,*52
1510643191.79,32431,6.5,73134.8,-8.61,-43.49,-44.41,0,*57
1510643193.02,32432,6.5,73130.5,-8.59,-43.61,-44.33,0,*50
1510643194.25,32433,6.5,73126.8,-8.59,-43.61,-44.33,0,*51
1510643195.51,32434,6.5,73130.5,-8.59,-43.55,-44.21,0,*52
1510643196.75,32435,6.5,73124.8,-8.61,-43.49,-44.27,0,*53
1510643197.95,32436,6.5,73126.8,-8.59,-43.49,-44.27,0,*5B
1510643199.2,32437,6.5,73126.8,-8.59,-43.29,-44.13,0,*5B
1510643200.47,32438,6.5,73122.5,-8.61,-43.61,-44.21,0,*52
1510643201.71,32439,6.5,73120.8,-8.59,-43.41,-44.21,0,*5A
1510643202.94,32440,6.5,73122.8,-8.61,-43.41,-44.07,0,*5B
1510643204.14,32441,6.5,73126.3,-8.59,-43.35,-44.07,0,*52
1510643205.37,32442,6.5,73122.3,-8.59,-43.35,-44.13,0,*54
1510643206.6,32443,6.5,73122.5,-8.61,-43.35,-44.07,0,*5B
1510643207.84,32444,6.5,73118.8,-8.59,-43.29,-43.95,0,*56
1510643209.06,32445,6.5,73120.5,-8.59,-43.35,-44.01,0,*50
1510643210.29,32446,6.5,73126.8,-8.59,-43.41,-44.13,0,*53
1510643211.54,32447,6.5,73116.8,-8.59,-43.55,-44.01,0,*54
1510643212.77,32448,6.5,73122.5,-8.59,-43.29,-43.95,0,*5A
1510643214.02,32449,6.5,73122.5,-8.59,-43.09,-43.81,0,*5C
1510643215.28,32450,6.5,73122.0,-8.59,-42.69,-43.55,0,*5A
1510643216.53,32451,6.5,73116.5,-8.59,-42.69,-43.29,0,*50
1510643217.79,32452,6.5,73120.8,-8.55,-42.57,-43.29,0,*52
1510643219.02,32453,6.5,73120.3,-8.55,-42.51,-43.29,0,*55
1510643220.31,32454,6.5,73118.5,-8.51,-42.45,-43.09,0,*51
1510643221.57,32455,6.5,73122.0,-8.51,-42.31,-42.89,0,*5A
1510643222.84,32456,6.5,73120.0,-8.49,-42.19,-42.95,0,*57
1510643224.05,32457,6.5,73120.3,-8.49,-42.25,-43.01,0,*55
1510643225.26,32458,6.5,73118.8,-8.49,-42.37,-43.15,0,*5C
1510643226.47,32459,6.5,73124.0,-8.49,-42.37,-43.01,0,*58
1510643227.73,32460,6.5,73122.5,-8.47,-42.45,-43.01,0,*59
1510643229.0,32461,6.5,73126.8,-8.47,-42.37,-42.95,0,*51
1510643230.26,32462,6.5,73122.5,-8.47,-42.45,-43.15,0,*5E
1510643231.52,32463,6.5,73120.3,-8.45,-42.57,-43.21,0,*59
1510643232.78,32464,6.5,73122.0,-8.45,-42.57,-43.21,0,*5E
1510643234.03,32465,6.5,73124.5,-8.45,-42.69,-43.35,0,*57
1510643235.25,32466,6.5,73120.8,-8.45,-42.89,-43.35,0,*5A
1510643236.47,32467,6.5,73124.8,-8.45,-42.89,-43.41,0,*58
1510643237.73,32468,6.5,73122.0,-8.43,-42.69,-43.41,0,*5F
1510643238.99,32469,6.5,73126.5,-8.43,-42.75,-43.55,0,*56
1510643240.25,32470,6.5,73122.3,-8.43,-42.69,-43.35,0,*55
1510643241.51,32471,6.5,73122.3,-8.43,-42.69,-43.41,0,*57
1510643242.77,32472,6.5,73120.5,-8.43,-42.51,-43.21,0,*59
1510643244.01,32473,6.5,73120.5,-8.41,-42.51,-43.09,0,*50
1510643245.24,32474,6.5,73124.0,-8.41,-42.51,-43.09,0,*57
1510643246.45,32475,6.5,73126.0,-8.41,-42.51,-43.15,0,*5B
1510643247.74,32476,6.5,73126.0,-8.39,-42.45,-43.09,0,*5F
1510643248.99,32477,6.5,73122.8,-8.39,-42.45,-42.89,0,*57
1510643250.28,32478,6.5,73124.0,-8.39,-42.45,-43.09,0,*51
1510643251.53,32479,6.5,73128.5,-8.39,-42.63,-43.29,0,*56
1510643252.79,32480,6.5,73124.3,-8.39,-42.63,-43.29,0,*50
1510643254.05,32481,6.5,73124.3,-8.39,-42.69,-43.49,0,*5D
1510643255.29,32482,6.5,73124.8,-8.37,-42.83,-43.41,0,*5C
1510643256.52,32483,6.5,73126.0,-8.37,-42.83,-43.49,0,*55
1510643257.75,32484,6.5,73126.8,-8.37,-42.83,-43.49,0,*52
1510643258.99,32485,6.5,73130.8,-8.37,-42.83,-43.49,0,*53
1510643260.23,32486,6.5,73130.0,-8.35,-43.01,-43.61,0,*53
1510643261.47,32487,6.5,73128.0,-8.37,-42.95,-43.61,0,*5C
1510643262.74,32488,6.5,73130.8,-8.37,-43.09,-43.67,0,*51
1510643263.98,32489,6.5,73134.5,-8.37,-43.01,-43.67,0,*58
1510643265.25,32490,6.5,73134.0,-8.35,-43.09,-43.61,0,*5C
1510643266.5,32491,6.5,73130.8,-8.37,-43.21,-43.81,0,*5B
1510643267.78,32492,6.5,73134.3,-8.35,-43.29,-44.01,0,*5D
1510643269.03,32493,6.5,73134.0,-8.35,-43.21,-43.87,0,*5D
1510643270.32,32494,6.5,73130.5,-8.35,-43.09,-43.81,0,*56
1510643271.57,32495,6.5,73132.0,-8.37,-43.09,-43.81,0,*55
1510643272.86,32496,6.5,73136.3,-8.35,-43.09,-43.81,0,*54
1510643274.11,32497,6.5,73136.3,-8.37,-43.09,-43.81,0,*57
1510643275.37,32498,6.5,73136.8,-8.35,-43.01,-43.81,0,*52
1510643276.64,32499,6.5,73132.8,-8.35,-43.61,-44.33,0,*5B
1510643277.87,32500,6.5,73134.0,-8.37,-44.01,-44.53,0,*5F
1510643279.12,32501,6.5,73132.5,-8.37,-44.01,-44.67,0,*59
1510643280.38,32502,6.5,73128.0,-8.37,-43.67,-44.33,0,*5C
1510643281.61,32503,6.5,73134.3,-8.35,-43.41,-44.07,0,*5C
1510643282.84,32504,6.5,73130.0,-8.37,-43.61,-44.47,0,*5F
1510643284.1,32505,6.5,73128.0,-8.37,-43.67,-44.47,0,*58
1510643285.32,32506,6.5,73126.3,-8.37,-44.33,-45.13,0,*5D
1510643286.58,32507,6.5,73126.5,-8.37,-43.67,-44.33,0,*59
1510643287.81,32508,6.5,73130.0,-8.37,-43.29,-43.87,0,*54
1510643289.05,32509,6.5,73128.5,-8.37,-43.49,-44.21,0,*58
1510643290.3,32510,6.5,73126.8,-8.39,-43.67,-44.41,0,*54
1510643291.51,32511,6.5,73128.5,-8.37,-43.41,-44.07,0,*5D
1510643292.74,32512,6.5,73128.0,-8.37,-43.21,-43.87,0,*57
1510643293.95,32513,6.5,73128.5,-8.37,-43.41,-44.07,0,*5F
1510643295.19,32514,6.5,73124.0,-8.37,-43.41,-44.01,0,*5E
1510643296.41,32515,6.5,73122.5,-8.37,-43.29,-43.87,0,*58
1510643297.65,32516,6.5,73122.8,-8.39,-43.49,-44.07,0,*5C
1510643298.91,32517,6.5,73124.8,-8.37,-43.29,-44.01,0,*53
1510643300.14,32518,6.5,73122.3,-8.37,-43.49,-44.01,0,*5A
1510643301.38,32519,6.5,73122.5,-8.35,-43.61,-44.27,0,*57
1510643302.63,32520,6.5,73122.5,-8.39,-43.87,-44.73,0,*58
1510643303.86,32521,6.5,73122.3,-8.39,-43.95,-44.53,0,*58
1510643305.11,32522,6.5,73122.3,-8.37,-43.81,-44.47,0,*55
1510643306.39,32523,6.5,73122.0,-8.39,-44.33,-44.93,0,*5D
1510643307.62,32524,6.5,73120.0,-8.39,-43.95,-44.41,0,*5E
1510643308.88,32525,6.5,73124.8,-8.39,-43.15,-43.67,0,*54
1510643310.14,32526,6.5,73122.0,-8.41,-42.69,-43.29,0,*58
1510643311.4,32527,6.5,73122.5,-8.37,-42.57,-43.09,0,*57
1510643312.65,32528,6.5,73122.0,-8.37,-42.57,-43.21,0,*52
1510643313.88,32529,6.5,73122.5,-8.37,-42.63,-43.21,0,*54
1510643315.17,32530,6.5,73124.5,-8.35,-42.57,-43.21,0,*59
1510643316.42,32531,6.5,73124.5,-8.35,-42.63,-43.29,0,*57